Weather History for Townsville Amo, Queensland

Change the Weather History Date:

Saturday, January 4, 2014

  Actual Average Record
Temperature  
Mean Temperature 88 °F -  
Max Temperature 95 °F 89 °F - ()
Min Temperature 81 °F 76 °F - ()
Cooling Degree Days 23    
Growing Degree Days 38 (Base 50)    
Moisture  
Dew Point 74 °F    
Average Humidity 68    
Maximum Humidity 84    
Minimum Humidity 30    
Precipitation  
Precipitation 0.00 in 0.32 in - ()
Sea Level Pressure  
Sea Level Pressure 29.67 in    
Wind  
Wind Speed 9 mph ()    
Max Wind Speed 16 mph    
Max Gust Speed -    
Visibility 6.9 miles    
Events      
T = Trace of Precipitation, MM = Missing Value Source: Averaged Metar Reports

Daily Weather History Graph

Daily Weather History Graph

Search for Another Location

Airport:

Trip Planner

Search our weather history database for the weather conditions in past years. The results will help you decide how hot, cold, wet, or windy it might be!

Date:

Astronomy

Jan. 04, 2014 Rise Set
Actual Time 5:39 AM AEST 6:55 PM AEST
Civil Twilight 5:15 AM AEST 7:19 PM AEST
Nautical Twilight 4:46 AM AEST 7:48 PM AEST
Astronomical Twilight 4:17 AM AEST 8:18 PM AEST
Moon 8:22 AM AEST (1/4) 9:16 PM AEST (1/4)
Length of Visible Light 14h 03m
Length of Day
13h 15m
Waxing Crescent, 10% of the Moon is Illuminated
Jan 4
Waxing Crescent
Jan 8
First Quarter
Jan 16
Full
Jan 24
Last Quarter
Jan 31
New

Hourly Weather History & Observations

Time (AEST) Temp. Heat Index Dew Point Humidity Pressure Visibility Wind Dir Wind Speed Gust Speed Precip Events Conditions
12:00 AM 82 °F - 76 °F 78% 29.73 in - North 8.1 mph - -  
12:00 AM 82.4 °F 90.9 °F 77.0 °F 84% 29.71 in 6.2 mi North 8.1 mph - N/A   Unknown
12:30 AM 82.4 °F 89.5 °F 75.2 °F 79% 29.71 in 6.2 mi North 8.1 mph - N/A   Unknown
1:00 AM 82 °F - 76 °F 76% 29.74 in - North 6.9 mph - -  
1:00 AM 82.4 °F 89.5 °F 75.2 °F 79% 29.71 in 6.2 mi North 6.9 mph - N/A   Scattered Clouds
1:30 AM 82.4 °F 89.5 °F 75.2 °F 79% 29.71 in 6.2 mi North 8.1 mph - N/A   Scattered Clouds
2:00 AM 82.4 °F 89.5 °F 75.2 °F 79% 29.71 in 6.2 mi North 6.9 mph - N/A   Scattered Clouds
2:30 AM 82.4 °F 89.5 °F 75.2 °F 79% 29.71 in 6.2 mi North 9.2 mph - N/A   Scattered Clouds
3:00 AM 82 °F - 75 °F 73% 29.70 in - North 6.9 mph - -  
3:00 AM 82.4 °F 89.5 °F 75.2 °F 79% 29.68 in 6.2 mi North 6.9 mph - N/A   Unknown
3:30 AM 82.4 °F 89.5 °F 75.2 °F 79% 29.68 in 6.2 mi North 9.2 mph - N/A   Scattered Clouds
4:00 AM 81 °F - 74 °F 75% 29.71 in - North 6.9 mph - -  
4:00 AM 80.6 °F 86.2 °F 75.2 °F 84% 29.68 in 6.2 mi North 6.9 mph - N/A   Unknown
4:30 AM 82.4 °F 89.5 °F 75.2 °F 79% 29.68 in 6.2 mi North 8.1 mph - N/A   Scattered Clouds
5:00 AM 82.4 °F 89.5 °F 75.2 °F 79% 29.71 in 6.2 mi North 8.1 mph - N/A   Scattered Clouds
5:30 AM 82.4 °F 89.5 °F 75.2 °F 79% 29.71 in 6.2 mi North 9.2 mph - N/A   Mostly Cloudy
6:00 AM 82 °F - 75 °F 73% 29.72 in 12 mi North 12.7 mph - -   Haze
6:00 AM 82.4 °F 89.5 °F 75.2 °F 79% 29.71 in 6.2 mi North 12.7 mph - N/A   Scattered Clouds
6:30 AM 82.4 °F 88.2 °F 73.4 °F 74% 29.71 in 6.2 mi North 10.4 mph - N/A   Partly Cloudy
7:00 AM 84 °F - 75 °F 67% 29.74 in - North 12.7 mph - -  
7:00 AM 84.2 °F 92.3 °F 75.2 °F 74% 29.71 in 6.2 mi North 12.7 mph - N/A   Partly Cloudy
7:30 AM 84.2 °F 92.3 °F 75.2 °F 74% 29.74 in 6.2 mi NNW 10.4 mph - N/A   Scattered Clouds
8:00 AM 84.2 °F 90.9 °F 73.4 °F 70% 29.77 in 6.2 mi NNW 11.5 mph - N/A   Scattered Clouds
8:30 AM 86.0 °F 95.1 °F 75.2 °F 70% 29.77 in 6.2 mi NNW 10.4 mph - N/A   Scattered Clouds
9:00 AM 88 °F - 75 °F 58% 29.76 in 16 mi NW 8.1 mph - -   Haze
9:00 AM 87.8 °F 97.6 °F 75.2 °F 66% 29.74 in 6.2 mi NW 8.1 mph - N/A   Partly Cloudy
9:30 AM 87.8 °F 95.6 °F 73.4 °F 62% 29.74 in 6.2 mi NNW 13.8 mph - N/A   Partly Cloudy
10:00 AM 91 °F - 70 °F 40% 29.74 in - NNW 8.1 mph - -  
10:00 AM 91.4 °F 96.8 °F 69.8 °F 49% 29.71 in 6.2 mi NNW 8.1 mph - N/A   Partly Cloudy
10:30 AM 91.4 °F 96.8 °F 69.8 °F 49% 29.71 in 6.2 mi NNW 6.9 mph - N/A   Scattered Clouds
11:00 AM 91.4 °F 98.4 °F 71.6 °F 52% 29.68 in 6.2 mi North 10.4 mph - N/A   Partly Cloudy
11:30 AM 93.2 °F 97.7 °F 68.0 °F 44% 29.68 in 6.2 mi NE 12.7 mph - N/A   Partly Cloudy
12:00 PM 93 °F - 65 °F 30% 29.67 in 12 mi NE 10.4 mph - -   Haze
12:00 PM 93.2 °F 96.2 °F 66.2 °F 41% 29.65 in 6.2 mi NNE 10.4 mph - N/A   Partly Cloudy
12:30 PM 91.4 °F 98.4 °F 71.6 °F 52% 29.65 in 6.2 mi NE 12.7 mph - N/A   Partly Cloudy
1:00 PM 92 °F - 73 °F 44% 29.66 in - NE 8.1 mph - -  
1:00 PM 93.2 °F 102.4 °F 73.4 °F 52% 29.65 in 6.2 mi NE 8.1 mph - N/A   Partly Cloudy
1:30 PM 95.0 °F 103.2 °F 71.6 °F 47% 29.62 in 6.2 mi ENE 10.4 mph - N/A   Partly Cloudy
2:00 PM 93.2 °F 100.5 °F 71.6 °F 49% 29.59 in 6.2 mi NE 6.9 mph - N/A   Partly Cloudy
2:30 PM 91.4 °F 102.5 °F 75.2 °F 59% 29.59 in 6.2 mi North 16.1 mph - N/A   Scattered Clouds
3:00 PM 91 °F - 76 °F 52% 29.60 in 11 mi North 13.8 mph - -   Smoke
3:00 PM 91.4 °F 102.5 °F 75.2 °F 59% 29.59 in 6.2 mi North 13.8 mph - N/A   Scattered Clouds
3:30 PM 89.6 °F 99.8 °F 75.2 °F 62% 29.59 in 6.2 mi North 11.5 mph - N/A   Scattered Clouds
4:00 PM 89 °F - 74 °F 52% 29.60 in - North 15.0 mph - -  
4:00 PM 89.6 °F 98.2 °F 73.4 °F 59% 29.59 in 6.2 mi North 15.0 mph - N/A   Partly Cloudy
4:30 PM 87.8 °F 95.6 °F 73.4 °F 62% 29.59 in 6.2 mi North 15.0 mph - N/A   Partly Cloudy
5:00 PM 89.6 °F 99.8 °F 75.2 °F 62% 29.56 in 6.2 mi NNE 11.5 mph - N/A   Partly Cloudy
5:30 PM 87.8 °F 97.6 °F 75.2 °F 66% 29.59 in 6.2 mi North 11.5 mph - N/A   Partly Cloudy
6:00 PM 86 °F - 75 °F 64% 29.61 in 12 mi North 15.0 mph - -   Smoke
6:00 PM 86.0 °F 95.1 °F 75.2 °F 70% 29.59 in 6.2 mi North 15.0 mph - N/A   Scattered Clouds
6:30 PM 84.2 °F 94.1 °F 77.0 °F 79% 29.62 in 6.2 mi North 15.0 mph - N/A   Scattered Clouds
7:00 PM 84 °F - 76 °F 72% 29.65 in - North 12.7 mph - -  
7:00 PM 84.2 °F 94.1 °F 77.0 °F 79% 29.62 in 6.2 mi North 12.7 mph - N/A   Mostly Cloudy
7:30 PM 84.2 °F 92.3 °F 75.2 °F 74% 29.62 in 6.2 mi North 12.7 mph - N/A   Mostly Cloudy
8:00 PM 84.2 °F 94.1 °F 77.0 °F 79% 29.65 in 6.2 mi North 10.4 mph - N/A   Mostly Cloudy
8:30 PM 84.2 °F 94.1 °F 77.0 °F 79% 29.65 in 6.2 mi North 10.4 mph - N/A   Scattered Clouds
9:00 PM 85 °F - 78 °F 73% 29.68 in 12 mi North 10.4 mph - -   Partly Cloudy
9:00 PM 84.2 °F 94.1 °F 77.0 °F 79% 29.68 in 6.2 mi North 10.4 mph - N/A   Scattered Clouds
9:30 PM 84.2 °F 94.1 °F 77.0 °F 79% 29.68 in 6.2 mi North 8.1 mph - N/A   Scattered Clouds
10:00 PM 84 °F - 77 °F 75% 29.69 in - NNE 8.1 mph - -  
10:00 PM 84.2 °F 94.1 °F 77.0 °F 79% 29.68 in 6.2 mi NNE 8.1 mph - N/A   Scattered Clouds
10:30 PM 84.2 °F 94.1 °F 77.0 °F 79% 29.68 in 6.2 mi North 5.8 mph - N/A   Scattered Clouds
11:00 PM 84.2 °F 94.1 °F 77.0 °F 79% 29.68 in 6.2 mi North 8.1 mph - N/A   Unknown
11:30 PM 84.2 °F 94.1 °F 77.0 °F 79% 29.68 in 6.2 mi North 6.9 mph - N/A   Scattered Clouds